Flag for Germany Weather past 2 weeks in Calw, Baden-Württemberg, Germany

Now
39 °F

Passing clouds.


Feels Like: 35 °F
Forecast: 30 / 41 °F
Wind: 6 mph from Southwest

Location: Stuttgart-Echterdingen

Current Time: Apr 1, 2015 at 11:46:53 PM

Latest Report: Apr 1, 2015 at 11:00 PM


Visibility: 25 mi

Pressure: 30.22 "Hg

Humidity: 67%

Dew point: 29 °F

Location of CalwLocation

Historic Weather in Calw — Graph

°F

Calw temperature yesterday

Maximum temperature yesterday: 55 °F (at 8:00 AM)
Minimum temperature yesterday: 41 °F (at 10:00 PM)
Average temperature yesterday: 48 °F

Past Weeks' High & Low Weather Summary

 TemperatureHumidityPressure
High62 °F (Mar 18, 4:00 PM)97% (Mar 24, 6:00 AM)30.30 "Hg (Mar 24, 6:00 AM)
Low30 °F (Mar 24, 7:00 AM)30% (Mar 20, 5:00 PM)29.56 "Hg (Mar 25, 3:00 PM)
Average45 °F69%29.99 "Hg
* Reported Mar 17 9:00 PM — Apr 1 10:00 PM, Calw, Weather by CustomWeather, © 2015

Note: Actual official high and low records may vary slightly from our data, if they occured in-between our weather recording intervals... More about our weather records

Advertising

Calw weather history for previous 24 hours

 ConditionsComfort  
Time TempWeatherWind HumidityBarometerVisibility
10:00 PM
Wed, Apr 1
38 °FPassing clouds.5 mph73%30.24 "Hg25 mi
9:00 PM39 °FPassing clouds.6 mph67%30.22 "Hg25 mi
8:00 PM39 °FPassing clouds.8 mph71%30.21 "Hg19 mi
7:00 PM42 °FScattered clouds.10 mph59%30.18 "Hg31 mi
6:00 PM44 °FScattered clouds.12 mph54%30.17 "Hg37 mi
4:00 PM40 °FScattered clouds.9 mph80%30.18 "Hg19 mi
3:00 PM43 °FPartly sunny.17 mph59%30.16 "Hg37 mi
2:00 PM43 °FScattered clouds.14 mph65%30.16 "Hg37 mi
1:00 PM42 °FSprinkles. Overcast.13 mph55%30.16 "Hg37 mi
12:00 PM42 °FScattered clouds.13 mph54%30.15 "Hg37 mi
11:00 AM42 °FScattered clouds.15 mph57%30.15 "Hg31 mi
10:00 AM40 °FScattered clouds.13 mph60%30.13 "Hg22 mi
9:00 AM37 °FScattered clouds.14 mph68%30.11 "Hg22 mi
8:00 AM35 °FSnow showers. Overcast.15 mph81%30.07 "Hg2 mi
7:00 AM38 °FOvercast.13 mph74%30.04 "Hg19 mi
6:00 AM37 °FChilly.7 mph82%30.03 "HgN/A
4:00 AM35 °FSnow flurries. Overcast.9 mph85%30.03 "Hg12 mi
3:00 AM40 °FPassing clouds.8 mph78%29.99 "Hg25 mi
2:00 AM43 °FPassing clouds.9 mph66%29.96 "Hg22 mi
1:00 AM43 °FPassing clouds.9 mph70%29.96 "Hg22 mi
12:00 AM41 °FPassing clouds.8 mph79%29.94 "Hg25 mi
Weather by CustomWeather, © 2015

See weather overviewHow to use our weather pages